Retour au catalogue

STARLINK-32799

ActifCommunicationsVLEO
NORAD 62847·PAYLOAD·🇺🇸 United States

Lancé Jan 27, 2025 depuis Cape Canaveral Space Force Station

Loading…

Prochains Passages (prochaines 24 heures)

TLE

FraisSource: CelesTrak SupGP

Époque: Sep 14, 2026, 22:37 UTC

1 62847C 25019U   26257.94284722  .00004742  00000+0  17181-3 0  2578
2 62847  42.9993 100.0101 0001376 274.4838 194.8015 15.27565122    16

Suivez STARLINK-32799 en temps réel avec AllMySat

Download on the App Store